Location: Mactaquac Provincial Park
(45.9573°N, 66.8897°W)
Time: 19:20:56
(UTC-04:00)

CENTAUR R/B - Visible Passes

Search period start: 06 February 2016 00:00
Search period end: 16 February 2016 00:00
Orbit: 866 x 1322 km, 63.5° (Epoch: 03 February)

Date Brightness Start Highest point End Pass type
(mag) Time Alt. Az. Time Alt. Az. Time Alt. Az.
06 Feb 4.8 03:09:46 18° ENE 03:09:46 18° ENE 03:12:02 10° ENE visible
06 Feb 2.6 04:56:58 68° NNW 04:56:58 68° NNW 05:03:40 10° NE visible
06 Feb 3.9 06:44:10 13° WNW 06:48:42 25° NNW 06:54:35 10° NNE visible
07 Feb 3.4 04:10:31 47° NE 04:10:31 47° NE 04:15:23 10° NE visible
07 Feb 3.5 05:57:43 27° WNW 05:59:52 32° NNW 06:06:14 10° NNE visible
08 Feb 4.4 03:24:00 25° ENE 03:24:00 25° ENE 03:26:57 10° NE visible
08 Feb 3.1 05:11:12 43° NW 05:11:13 43° NW 05:17:58 10° NNE visible
08 Feb 4.2 06:58:55 10° WNW 07:03:55 21° NNW 07:09:19 10° NE visible
09 Feb 5.2 02:37:26 13° ENE 02:37:26 13° ENE 02:38:15 10° NE visible
09 Feb 3.3 04:24:37 46° N 04:24:37 46° N 04:29:44 10° NE visible
09 Feb 4.0 06:11:48 18° NW 06:14:55 24° NNW 06:20:42 10° NNE visible
10 Feb 4.1 03:38:01 31° NE 03:38:01 31° NE 03:41:28 10° NE visible
10 Feb 3.6 05:25:12 29° NW 05:26:03 30° NNW 05:32:18 10° NNE visible
11 Feb 4.9 02:51:22 18° NE 02:51:22 18° NE 02:53:05 10° NE visible
11 Feb 3.5 04:38:33 37° NNW 04:38:33 37° NNW 04:44:02 10° NNE visible
11 Feb 4.3 06:25:44 12° NW 06:30:10 20° N 06:35:31 10° NE visible
12 Feb 4.0 03:51:52 33° NNE 03:51:52 33° NNE 03:55:48 10° NE visible
12 Feb 4.0 05:39:03 20° NW 05:41:09 23° NNW 05:46:50 10° NNE visible
13 Feb 4.6 03:05:10 22° NE 03:05:10 22° NE 03:07:32 10° NE visible
13 Feb 3.8 04:52:21 28° NNW 04:52:21 28° NNW 04:58:24 10° NNE visible
13 Feb 4.5 06:40:36 10° NW 06:45:32 19° N 06:50:48 10° NE visible
14 Feb 5.2 02:18:27 13° NE 02:18:27 13° NE 02:19:11 10° NE visible
14 Feb 4.0 04:05:37 31° N 04:05:37 31° N 04:10:06 10° NNE visible
14 Feb 4.4 05:52:48 14° NW 05:56:27 20° N 06:01:43 10° NE visible
15 Feb 4.4 03:18:52 25° NNE 03:18:52 25° NNE 03:21:51 10° NE visible
15 Feb 4.1 05:06:02 21° NNW 05:07:23 22° NNW 05:12:59 10° NNE visible
15 Feb 4.6 06:55:35 10° NW 07:00:53 21° NNE 07:06:33 10° ENE visible
